Showing default

TRANSIT 4A, 116

Orbit data source: Space-Track

TRANSIT 4A, 116 is a payload satellite owned by USN BuWeps (US) in LEO that was launched on Thu, 29 Jun 1961 UTC via a THOR ABLESTAR launch vehicle from the Air Force Eastern Test Range (AFETR). Payload-class satellites include a variety of spacecraft equipped with specific instruments for various scientific and technological missions. These include communications satellites like Starlink; space stations such as the ISS; scientific satellites like the Hubble; Earth observation satellites from companies like Planet Labs, Umbra, and HawkEye 360; GPS; miniature CubeSats for education and research; and military/defense satellites.

Loading next visibility...
Identifier
116, 1961-015A
Orbit
LEO
Country
Flag of USUS
Related business
Manufacturer
APL
Mission
Spacecraft
Bus & Motor
TRANSIT 4, Unknown motor
Mass
78 kg wet, 78 kg dry
Launch date (UTC)
1961-06-29 (64 years ago)
Launch vehicle
THOR ABLESTAR
Launch site
Air Force Eastern Test Range (AFETR)
Object type
Payload
Rocket body
Debris
Shape & HBR
Unknown
Radar Cross Section
Medium (>0.1 m² and <1 m²)

Expand to show TLE details & history
Last TLE update: 23 hours ago

TLE from 23 hours ago
0 TRANSIT 4A
1 00116U 61015A   25315.24288397  .00000138  00000-0  16370-3 0  9992
2 00116  66.8104  64.1068 0069102  63.7998 297.0165 13.92279152266364
Epoch: 2025-11-11T05:49Z
TLE epoch observation values (Epoch: 2025-11-11T05:49:45.175Z)
Latitude
0.00002°
Longitude
-73.96366°
Altitude
900.098 km
Speed
7.414 km/s
True Right ascension
04h 16m 25s
True Declination
0° 00' 00"
Sunlit
Object was in full shadow at epoch
Visualization orbit readout
Latitude
Unknown
Longitude
Unknown
Altitude
Unknown
Speed
Unknown
Apparent Right ascension
Unknown
Apparent Declination
Unknown
Sunlit
N/A
Visualization observer readout
Local Sidereal Time
00:47:20
Azimuth
Unknown
Elevation
Unknown
Doppler factor
Unknown
Orbital elements
Apogee altitude
969.471 km
Perigee altitude
868.621 km
Semi-major axis
7,297.183 km
Eccentricity
0.00691
Inclination
66.8104°
RAAN
64.1068°
Arg. of periapsis
63.7998°
True anomaly
296.3083°
Mean anomaly
297.0165°
Eccentric anomaly
296.66268°
Mean motion
3.48185 °/min
Orbital period
103.39 mins
BSTAR
0.0001637
Loading maneuver chart data...
Computing Atmospheric mass density...

Documentation

Showing up to 5 results
|